Date String (YYYY-MM-DD hh:mm:ss) UTC,Instrument flags,absolute air pressure of the measurement (hPa),sample flow rate (lpm),inlet stack bypass flow (lpm),air temperature of the measurement (°C),ambient temperature measured by the external sensor (°C),aerosol sample conditioner tube jacket temperature (°C),OPC LED temperature (°C),internal box temperature (°C),relative humidity of the measurement (%),span deviation,mass concentration of particles derived from Lorenz-Mie calculation of OPC scattering (μg/m³),mass concentration of particles derived from Lorenz-Mie calculation of OPC scattering (μg/m³),mass concentration of particles derived from Lorenz-Mie calculation of OPC scattering (μg/m³)
DateTimeUTC,F1_M11,P_M11,Q1_M11,Q2_M11,T1_M11,T2_M11,T3_M11,T4_M11,T5_M11,U1_M11,ZSPAN_M11,X0_M11,X2_M11,X1_M11
2023-07-30 15:00:00,SystemResetWarning,0836.2,4.98,000.00,032.4,027.3,000.0,039.8,031.8,33.5,0000.0,0017.82,0006.37,0004.85
2023-07-30 15:01:00,SystemResetWarning,0836.2,5.01,000.00,032.5,027.6,000.0,039.8,031.8,34.1,0000.0,0017.59,0006.36,0004.85
2023-07-30 15:02:00,SystemResetWarning,0836.2,5.01,000.00,032.6,027.8,000.0,039.9,031.8,33.3,0000.0,0017.59,0006.34,0004.84
2023-07-30 15:03:00,SystemResetWarning,0836.3,5.00,000.00,032.6,028.0,000.0,040.0,031.9,33.9,0000.0,0017.88,0006.41,0004.85
2023-07-30 15:04:00,SystemResetWarning,0836.2,4.99,000.00,032.6,027.6,000.0,039.9,031.9,34.1,0000.0,0017.55,0006.38,0004.87
2023-07-30 15:05:00,SystemResetWarning,0836.2,4.99,000.00,032.6,026.2,000.0,039.8,031.7,33.8,0000.0,0017.95,0006.40,0004.86
2023-07-30 15:06:00,SystemResetWarning,0836.2,5.00,000.00,032.5,025.6,000.0,039.8,031.6,33.4,0000.0,0018.23,0006.46,0004.87
2023-07-30 15:07:00,SystemResetWarning,0836.2,5.02,000.00,032.4,025.7,000.0,039.8,031.4,33.4,0000.0,0017.87,0006.48,0004.88
2023-07-30 15:08:00,SystemResetWarning,0836.2,4.99,000.00,032.2,026.1,000.0,039.9,031.4,34.3,0000.0,0017.98,0006.55,0004.89
2023-07-30 15:09:00,SystemResetWarning,0836.1,5.00,000.00,032.1,026.5,000.0,039.9,031.4,35.2,0000.0,0017.78,0006.61,0004.92
2023-07-30 15:10:00,SystemResetWarning,0836.3,5.01,000.00,032.2,026.9,000.0,039.9,031.6,34.9,0000.0,0018.02,0006.67,0004.94
2023-07-30 15:11:00,SystemResetWarning,0836.2,4.99,000.00,032.2,027.2,000.0,039.9,031.7,34.3,0000.0,0018.29,0006.68,0004.96
2023-07-30 15:12:00,SystemResetWarning,0836.2,5.00,000.00,032.3,027.5,000.0,040.0,031.8,34.6,0000.0,0019.10,0006.74,0004.98
2023-07-30 15:13:00,SystemResetWarning,0836.2,5.01,000.00,032.3,027.8,000.0,040.0,031.8,34.8,0000.0,0020.10,0006.84,0005.02
2023-07-30 15:14:00,SystemResetWarning,0836.2,5.01,000.00,032.4,027.9,000.0,040.0,031.9,33.9,0000.0,0020.90,0006.87,0005.05
2023-07-30 15:15:00,SystemResetWarning,0836.2,4.98,000.00,032.4,027.0,000.0,039.9,031.9,33.8,0000.0,0021.35,0006.95,0005.08
2023-07-30 15:16:00,SystemResetWarning,0836.2,5.01,000.00,032.4,025.8,000.0,039.8,031.6,33.9,0000.0,0020.56,0006.94,0005.11
2023-07-30 15:17:00,SystemResetWarning,0836.2,5.01,000.00,032.3,025.6,000.0,039.7,031.5,34.5,0000.0,0020.43,0006.95,0005.13
2023-07-30 15:18:00,SystemResetWarning,0836.1,4.98,000.00,032.1,025.8,000.0,039.8,031.3,34.8,0000.0,0019.84,0006.96,0005.13
2023-07-30 15:19:00,SystemResetWarning,0836.1,5.00,000.00,032.0,026.2,000.0,039.8,031.4,35.2,0000.0,0019.62,0006.94,0005.14
2023-07-30 15:20:00,SystemResetWarning,0836.1,5.02,000.00,032.2,026.6,000.0,039.8,031.5,35.1,0000.0,0019.69,0007.00,0005.15
2023-07-30 15:21:00,SystemResetWarning,0836.2,4.96,000.00,032.3,027.0,000.0,039.9,031.7,34.0,0000.0,0019.89,0007.02,0005.15
2023-07-30 15:22:00,SystemResetWarning,0836.2,5.03,000.00,032.4,027.3,000.0,039.9,031.8,34.2,0000.0,0020.07,0007.04,0005.17
2023-07-30 15:23:00,SystemResetWarning,0836.2,5.00,000.00,032.5,027.6,000.0,039.9,031.8,34.5,0000.0,0019.01,0007.03,0005.19
2023-07-30 15:24:00,SystemResetWarning,0836.2,5.00,000.00,032.5,027.8,000.0,040.0,031.9,33.9,0000.0,0018.03,0006.94,0005.18
2023-07-30 15:25:00,SystemResetWarning,0836.2,4.98,000.00,032.5,027.1,000.0,039.9,031.8,34.0,0000.0,0017.34,0006.90,0005.18
2023-07-30 15:26:00,SystemResetWarning,0836.2,5.00,000.00,032.5,025.9,000.0,039.8,031.6,34.0,0000.0,0017.08,0006.91,0005.17
2023-07-30 15:27:00,SystemResetWarning,0836.2,5.01,000.00,032.4,025.6,000.0,039.8,031.5,34.1,0000.0,0017.28,0006.96,0005.19
2023-07-30 15:28:00,SystemResetWarning,0836.2,5.01,000.00,032.2,025.8,000.0,039.8,031.3,34.2,0000.0,0017.94,0007.00,0005.21
2023-07-30 15:29:00,SystemResetWarning,0836.2,4.98,000.00,032.1,026.2,000.0,039.9,031.3,33.9,0000.0,0018.01,0007.01,0005.22
2023-07-30 15:30:00,SystemResetWarning,0836.2,4.99,000.00,032.0,026.6,000.0,039.9,031.4,34.0,0000.0,0018.64,0007.02,0005.23
2023-07-30 15:31:00,SystemResetWarning,0836.3,5.00,000.00,031.9,027.0,000.0,039.9,031.5,34.1,0000.0,0018.56,0006.96,0005.24
2023-07-30 15:32:00,SystemResetWarning,0836.3,5.02,000.00,031.9,027.3,000.0,039.9,031.5,34.6,0000.0,0018.15,0006.94,0005.25
2023-07-30 15:33:00,SystemResetWarning,0836.2,4.98,000.00,031.9,027.6,000.0,039.9,031.6,35.7,0000.0,0017.59,0006.93,0005.24
2023-07-30 15:34:00,SystemResetWarning,0836.3,5.03,000.00,032.0,027.9,000.0,039.9,031.8,35.5,0000.0,0018.31,0006.94,0005.24
2023-07-30 15:35:00,SystemResetWarning,0836.2,4.97,000.00,032.3,027.4,000.0,039.8,031.9,34.8,0000.0,0019.33,0006.99,0005.24
2023-07-30 15:36:00,SystemResetWarning,0836.3,5.00,000.00,032.5,026.1,000.0,039.6,031.7,33.8,0000.0,0018.72,0007.05,0005.25
2023-07-30 15:37:00,SystemResetWarning,0836.2,5.00,000.00,032.5,025.6,000.0,039.6,031.6,33.7,0000.0,0019.35,0007.03,0005.24
2023-07-30 15:38:00,SystemResetWarning,0836.2,5.00,000.00,032.4,025.8,000.0,039.6,031.4,34.6,0000.0,0020.29,0007.00,0005.23
2023-07-30 15:39:00,SystemResetWarning,0836.2,5.03,000.00,032.4,026.2,000.0,039.7,031.4,34.7,0000.0,0019.30,0006.93,0005.21
2023-07-30 15:40:00,SystemResetWarning,0836.3,4.97,000.00,032.4,026.6,000.0,039.8,031.5,34.0,0000.0,0019.11,0006.94,0005.22
2023-07-30 15:41:00,SystemResetWarning,0836.3,5.01,000.00,032.4,027.0,000.0,039.9,031.6,34.3,0000.0,0019.02,0006.96,0005.21
2023-07-30 15:42:00,SystemResetWarning,0836.2,5.01,000.00,032.4,027.3,000.0,039.9,031.7,34.4,0000.0,0019.09,0007.00,0005.21
2023-07-30 15:43:00,SystemResetWarning,0836.2,4.99,000.00,032.3,027.6,000.0,040.0,031.7,34.3,0000.0,0019.64,0006.96,0005.21
2023-07-30 15:44:00,SystemResetWarning,0836.2,4.98,000.00,032.3,027.7,000.0,040.0,031.8,34.8,0000.0,0020.75,0006.95,0005.21
2023-07-30 15:45:00,SystemResetWarning,0836.2,5.02,000.00,032.4,026.7,000.0,039.9,031.7,35.0,0000.0,0020.54,0006.93,0005.21
2023-07-30 15:46:00,SystemResetWarning,0836.2,4.99,000.00,032.5,025.7,000.0,039.8,031.6,34.8,0000.0,0019.77,0006.94,0005.21
2023-07-30 15:47:00,SystemResetWarning,0836.2,5.01,000.00,032.6,025.6,000.0,039.7,031.5,34.1,-000.9,0020.30,0006.90,0005.22
2023-07-30 15:48:00,SystemResetWarning,0836.2,5.00,000.00,032.5,025.9,000.0,039.8,031.4,34.4,-001.5,0019.66,0006.87,0005.23
2023-07-30 15:49:00,SystemResetWarning,0836.2,5.00,000.00,032.5,026.3,000.0,039.9,031.4,34.5,0000.0,0018.27,0006.89,0005.24
2023-07-30 15:50:00,SystemResetWarning,0836.2,5.00,000.00,032.4,026.7,000.0,039.9,031.5,34.3,0000.0,0018.53,0006.91,0005.26
2023-07-30 15:51:00,SystemResetWarning,0836.2,5.00,000.00,032.4,027.1,000.0,040.0,031.6,33.8,0000.0,0019.09,0006.92,0005.26
2023-07-30 15:52:00,SystemResetWarning,0836.2,4.99,000.00,032.4,027.4,000.0,040.0,031.7,34.2,0000.0,0020.00,0006.98,0005.29
2023-07-30 15:53:00,SystemResetWarning,0836.3,5.00,000.00,032.4,027.6,000.0,040.0,031.8,35.3,0000.0,0020.26,0007.03,0005.30
2023-07-30 15:54:00,SystemResetWarning,0836.2,5.00,000.00,032.5,026.7,000.0,039.9,031.8,34.0,0000.0,0019.92,0007.05,0005.30
2023-07-30 15:55:00,SystemResetWarning,0836.3,4.99,000.00,032.6,025.6,000.0,039.8,031.6,34.2,0000.0,0018.95,0007.05,0005.31
2023-07-30 15:56:00,SystemResetWarning,0836.3,5.02,000.00,032.5,025.5,000.0,039.8,031.5,34.0,0000.0,0019.01,0007.06,0005.32
2023-07-30 15:57:00,SystemResetWarning,0836.3,5.01,000.00,032.4,025.8,000.0,039.8,031.3,34.0,0000.0,0018.40,0007.06,0005.32
2023-07-30 15:58:00,SystemResetWarning,0836.3,5.00,000.00,032.2,026.2,000.0,039.9,031.3,33.8,0000.0,0017.96,0007.05,0005.31
2023-07-30 15:59:00,SystemResetWarning,0836.3,5.00,000.00,032.2,026.6,000.0,039.9,031.4,34.3,0000.0,0019.00,0007.07,0005.30
